Home   Weather   Mechelen   Past weeks

Flag for Belgium Past Weather in Mechelen, Belgium — Yesterday and Last 2 Weeks

Now
55 °F

Clear.


Feels Like: 55 °F
Forecast: 49 / 64 °F
Wind: 5 mph from South

Location: Brussels National Airport

Current Time: Sep 30, 2016 at 10:32:46 PM

Latest Report: Sep 30, 2016 at 9:50 PM


Visibility: 10 mi

Pressure: 29.92 "Hg

Humidity: 82%

Dew Point: 50 °F

Location of MechelenLocation

Past Weather in Mechelen — Graph

°F

Mechelen Temperature Yesterday

Maximum temperature yesterday: 66 °F (at 12:20 PM)
Minimum temperature yesterday: 57 °F (at 11:20 PM)
Average temperature yesterday: 62 °F

High & Low Weather Summary for the Past Weeks

 TemperatureHumidityPressure
High77 °F (Sep 24, 4:20 PM)100% (Sep 24, 7:20 AM)30.33 "Hg (Sep 24, 7:20 AM)
Low45 °F (Sep 27, 5:50 AM)33% (Sep 19, 1:50 PM)29.86 "Hg (Sep 16, 4:50 PM)
Average61 °F73%30.11 "Hg
* Reported Sep 15 9:20 PM — Sep 30 9:20 PM, Mechelen, Weather by CustomWeather, © 2016

Note: Actual official high and low records may vary slightly from our data, if they occured in-between our weather recording intervals... More about our weather records

Advertising

Mechelen Weather History for the Previous 24 Hours

Scroll right to see more
 ConditionsComfort  
Time TempWeatherWind HumidityBarometerVisibility
9:20 PM
Fri, Sep 30
55 °FClear.3 mph82%29.95 "Hg10 mi
8:50 PM55 °FClear.5 mph82%29.92 "Hg10 mi
8:20 PM57 °FClear.3 mph77%29.95 "Hg10 mi
7:50 PM57 °FPassing clouds.3 mph77%29.95 "HgN/A
7:20 PM57 °FClear.3 mph72%29.95 "Hg10 mi
6:50 PM61 °FSunny.5 mph63%29.95 "Hg10 mi
6:20 PM63 °FPassing clouds.8 mph59%29.95 "HgN/A
5:50 PM63 °FPassing clouds.8 mph59%29.95 "HgN/A
5:20 PM63 °FPassing clouds.8 mph59%29.95 "HgN/A
4:50 PM63 °FPassing clouds.5 mph59%29.95 "HgN/A
4:20 PM63 °FPassing clouds.7 mph56%29.98 "HgN/A
3:50 PM66 °FPassing clouds.6 mph52%29.98 "HgN/A
3:20 PM63 °FPassing clouds.8 mph56%29.98 "HgN/A
2:50 PM64 °FPassing clouds.8 mph52%29.98 "HgN/A
2:20 PM63 °FPassing clouds.9 mph59%29.98 "HgN/A
1:50 PM64 °FPassing clouds.13 mph60%29.98 "HgN/A
1:20 PM63 °FScattered clouds.12 mph59%29.98 "HgN/A
12:50 PM61 °FPassing clouds.9 mph68%29.98 "HgN/A
12:20 PM61 °FPassing clouds.9 mph68%29.98 "HgN/A
11:50 AM59 °FPassing clouds.12 mph77%29.98 "HgN/A
11:20 AM59 °FPassing clouds.10 mph77%29.98 "HgN/A
10:50 AM59 °FPassing clouds.9 mph77%29.98 "HgN/A
10:20 AM57 °FPassing clouds.7 mph82%29.98 "HgN/A
9:50 AM57 °FPassing clouds.8 mph88%29.98 "HgN/A
9:20 AM57 °FPassing clouds.8 mph88%29.95 "HgN/A
8:50 AM55 °FScattered clouds.7 mph94%29.95 "HgN/A
8:20 AM55 °FScattered clouds.7 mph94%29.95 "HgN/A
7:50 AM55 °FPassing clouds.8 mph94%29.95 "HgN/A
7:20 AM55 °FPassing clouds.8 mph94%29.95 "HgN/A
6:50 AM55 °FPassing clouds.7 mph94%29.95 "HgN/A
6:20 AM55 °FClear.8 mph94%29.95 "Hg10 mi
5:50 AM55 °FPassing clouds.7 mph94%29.95 "HgN/A
5:20 AM55 °FClear.8 mph94%29.92 "Hg10 mi
4:50 AM57 °FPassing clouds.9 mph88%29.92 "HgN/A
4:20 AM57 °FPassing clouds.9 mph88%29.95 "HgN/A
3:50 AM57 °FPassing clouds.9 mph88%29.95 "HgN/A
3:20 AM57 °FPassing clouds.8 mph94%29.95 "HgN/A
2:50 AM57 °FPassing clouds.7 mph94%29.95 "HgN/A
2:20 AM57 °FPassing clouds.9 mph94%29.95 "HgN/A
1:50 AM57 °FPassing clouds.10 mph94%29.95 "HgN/A
1:20 AM57 °FPassing clouds.8 mph94%29.98 "HgN/A
12:50 AM57 °FPassing clouds.8 mph94%29.98 "HgN/A
12:20 AM57 °FPassing clouds.9 mph94%29.98 "HgN/A
11:50 PM
Thu, Sep 29
57 °FPassing clouds.9 mph94%29.98 "HgN/A
11:20 PM57 °FClear.9 mph94%29.98 "Hg10 mi
10:50 PM59 °FClear.10 mph88%29.98 "Hg10 mi
10:20 PM59 °FPassing clouds.9 mph88%29.98 "HgN/A
Weather by CustomWeather, © 2016

See weather overviewHow to use our weather pages